EDT,Max TemperatureF,Mean TemperatureF,Min TemperatureF,Max Dew PointF,MeanDew PointF,Min DewpointF,Max Humidity, Mean Humidity, Min Humidity, Max Sea Level PressureIn, Mean Sea Level PressureIn, Min Sea Level PressureIn, Max VisibilityMiles, Mean VisibilityMiles, Min VisibilityMiles, Max Wind SpeedMPH, Mean Wind SpeedMPH, Max Gust SpeedMPH,PrecipitationIn, CloudCover, Events, WindDirDegrees
2011-10-1,57,51,45,44,37,34,76,61,46,29.97,29.90,29.83,10,10,10,24,11,31,T,5,Rain,308
2011-10-2,56,51,45,39,34,30,71,56,41,30.02,29.98,29.92,10,10,10,25,11,35,0.01,6,,302
2011-10-3,60,53,46,42,39,35,71,58,44,30.19,30.10,29.99,10,10,10,22,9,26,T,6,Rain,291
2011-10-4,68,58,47,48,45,42,83,64,45,30.28,30.23,30.17,10,10,10,18,7,23,0.00,2,,307
2011-10-5,78,63,47,51,47,43,86,59,31,30.32,30.26,30.19,10,10,10,8,2,10,0.00,0,,352
2011-10-6,72,60,48,51,49,46,93,69,44,30.42,30.36,30.30,10,10,10,12,3,16,0.00,0,,144
2011-10-7,75,62,48,55,51,46,93,70,46,30.48,30.43,30.39,10,10,10,12,2,15,0.00,0,,136
2011-10-8,72,59,46,53,49,45,93,67,41,30.56,30.50,30.45,10,10,7,12,1,18,0.00,0,,98
2011-10-9,75,61,46,50,47,43,93,63,33,30.52,30.44,30.38,10,10,10,16,2,29,0.00,0,,99
2011-10-10,76,63,49,52,50,47,93,67,41,30.38,30.28,30.18,10,10,9,14,2,17,0.00,0,,75
2011-10-11,72,64,55,58,54,50,93,70,47,30.19,30.11,30.02,10,9,4,17,3,22,0.28,7,Rain,54
2011-10-12,68,63,58,64,60,55,100,94,87,30.03,29.90,29.81,10,5,1,9,2,13,1.29,8,Rain,33
2011-10-13,72,66,60,66,63,56,100,94,87,29.80,29.67,29.55,10,7,2,15,5,16,0.43,7,Rain,130
2011-10-14,69,62,55,58,45,32,93,62,30,29.80,29.64,29.55,10,10,5,29,9,41,0.17,4,Rain,266
2011-10-15,68,59,49,38,34,30,61,44,26,30.03,29.91,29.81,10,10,10,23,9,30,0.00,1,,242
2011-10-16,78,63,48,45,38,33,66,45,24,30.14,30.00,29.86,10,10,10,18,8,54,0.00,0,,233
2011-10-17,81,71,60,55,49,41,78,57,36,29.91,29.85,29.79,10,10,10,17,7,23,0.00,1,,255
2011-10-18,79,67,55,58,53,48,90,66,42,29.87,29.80,29.72,10,9,1,20,5,28,0.30,2,Rain,104
2011-10-19,60,55,49,59,56,43,97,86,74,29.69,29.47,29.31,10,5,2,22,6,32,0.54,8,Rain,122
2011-10-20,73,60,47,41,37,34,77,60,43,29.91,29.67,29.43,10,10,10,29,14,41,0.00,5,Rain,249
2011-10-21,63,53,42,39,37,34,66,53,39,30.16,30.05,29.93,10,10,10,20,7,26,0.00,3,,306
2011-10-22,63,50,37,40,38,35,92,66,39,30.21,30.14,30.08,10,10,10,8,2,12,0.00,0,,152
2011-10-23,65,51,37,43,40,35,92,66,39,30.19,30.14,30.08,10,10,10,12,2,,0.00,0,,112
2011-10-24,73,59,44,46,43,41,92,62,31,30.15,30.10,30.00,10,10,10,26,5,30,T,2,,299
2011-10-25,69,58,46,44,41,36,80,73,66,30.29,30.20,30.14,10,10,10,10,3,14,0.00,0,,26
2011-10-26,74,59,43,48,44,41,92,63,33,30.12,29.98,29.87,10,10,10,17,6,22,0.00,1,,260
2011-10-27,73,62,51,52,46,39,64,56,48,30.01,29.82,29.71,10,10,10,25,11,33,T,4,,266
2011-10-28,52,44,36,38,35,32,92,73,54,30.21,30.14,30.01,10,8,4,15,7,17,0.73,8,Rain,42
2011-10-29,49,43,36,37,33,27,100,73,45,30.15,30.05,29.99,10,9,3,25,9,36,0.31,5,Rain,345
2011-10-30,57,44,31,34,31,29,89,63,36,30.35,30.27,30.14,10,10,10,12,4,15,0.00,0,,132
2011-10-31,54,45,35,36,33,30,85,67,48,30.35,30.29,30.22,10,10,10,13,3,17,0.00,2,,112